Regional Weather Roundup
Issued by NWS

Home | Current Version | Previous Version | Graphics & Text | Print | Product List | Glossary On
Versions: 1 2 3 4 5 6 7 8 9 10 11 12 13 14 15 16 17 18 19 20 21 22 23 24 25 26 27 28 29 30 31 32 33 34 35 36 37 38 39 40 41 42 43 44 45 46 47 48 49 50
000
ASUS43 KMKX 210800
RWRWI

WISCONSIN REGIONAL WEATHER ROUNDUP
NATIONAL WEATHER SERVICE MILWAUKEE/SULLIVAN WI
300 AM CDT THU AUG 21 2014

NOTE: "FAIR" INDICATES FEW OR NO CLOUDS BELOW 12,000 FEET WITH NO
SIGNIFICANT WEATHER AND/OR OBSTRUCTIONS TO VISIBILITY.

WIZ001-002-006>008-014>016-023>028-210900-
NORTHWEST WISCONSIN

CITY           SKY/WX    TMP DP  RH WIND       PRES   REMARKS
SUPERIOR ARPT  CLOUDY    61  61  99 NE5       29.91F
ASHLAND        FOG       59  59 100 NE6       29.94S VSB 1/4
HAYWARD        PTCLDY    59  59 100 CALM      29.92S
SIREN          CLOUDY    64  61  91 E5        29.89S
RICE LAKE      CLOUDY    64  61  89 E5        29.92S
LADYSMITH      PTCLDY    61  59  93 E3        29.94F
EAU CLAIRE     NOT AVBL
MENOMONIE      SUNNY     65  63  92 E6        29.88F
NEW RICHMOND   PTCLDY    66  62  86 E7        29.87F
OSCEOLA        PTCLDY    67  63  86 E10       29.87F
$$

WIZ003>005-009-010-017-018-210900-
NORTH CENTRAL WISCONSIN

CITY           SKY/WX    TMP DP  RH WIND       PRES   REMARKS
WOODRUFF       MOCLDY    59  56  87 CALM      29.97F
RHINELANDER    CLOUDY    60  60 100 SE7       29.97F
EAGLE RIVER    CLOUDY    61  61  99 CALM      29.98S
LAND O LAKES   CLOUDY    61  61  99 CALM      30.00R
PHILLIPS       CLEAR     56  55  99 E3        29.94F
TOMAHAWK       MOCLDY    51  51  97 CALM      29.97F FOG
MEDFORD        CLOUDY    61  60  97 SE5       29.95F
MERRILL        CLOUDY    54  54 100 CALM      29.96F FOG
$$

WIZ029-030-035-036-043>047-210900-
CENTRAL WISCONSIN

CITY           SKY/WX    TMP DP  RH WIND       PRES   REMARKS
WAUSAU         MOCLDY    60  59  96 SE5       29.94F
MOSINEE        MOCLDY    59  59 100 E3        29.96F
MARSHFIELD     MOCLDY    63  60  90 E6        29.93F
STEVENS POINT  MOCLDY    58  57  96 CALM      29.96S
WAUPACA        MOCLDY    63  62  94 CALM      29.96S
WAUTOMA        NOT AVBL
WISC RAPIDS    MOCLDY    64  62  93 E3        29.94F
CAMP DOUGLAS   NOT AVBL
$$

WIZ011>013-019>022-031-037>040-048>050-210900-
NORTHEAST WISCONSIN

CITY           SKY/WX    TMP DP  RH WIND       PRES   REMARKS
ANTIGO         PTCLDY    59  59 100 E5        29.98S
STURGEON BAY   CLOUDY    63  61  94 S6        29.98S
GREEN BAY      MOCLDY    60  60 100 CALM      29.96F FOG
MANITOWOC      NOT AVBL
APPLETON       MOCLDY    64  63  94 E5        29.96F
CLINTONVILLE   MOCLDY    59  57  94 CALM      29.96S FOG
OSHKOSH        MOCLDY    63  61  93 S5        29.94F
$$

WIZ032>034-041-042-053>061-210900-
SOUTHWEST WISCONSIN

CITY           SKY/WX    TMP DP  RH WIND       PRES   REMARKS
LA CROSSE      CLOUDY    72  66  81 E6        29.89S
SPARTA         MOCLDY    67  64  90 CALM      29.91F
VIROQUA        CLOUDY    68  68 100 S6        29.93S
BOSCOBEL       CLOUDY    70  67  90 E5        29.90F
PRAIRIE DU CHI CLOUDY    70  66  86 E5        29.89F
PLATTEVILLE    MOCLDY    69  67  93 NW6       29.92F
$$

WIZ056-057-062-063-064-067-068-210900-
SOUTH CENTRAL WISCONSIN

CITY           SKY/WX    TMP DP  RH WIND       PRES   REMARKS
BARABOO/DELLS  MOCLDY    65  63  91 E5        29.92F FOG
LONE ROCK      NOT AVBL
WATERTOWN      MOCLDY    65  64  97 E5        29.93F
MADISON        CLOUDY    67  65  93 E3        29.92F
MIDDLETON      PTSUNNY   67  67 100 CALM      29.93F
MONROE         CLOUDY    68  68 100 SW6       29.95R
JANESVILLE     MOCLDY    70  68  94 CALM      29.93S
$$

WIZ051-052-058>065-066-070>072-210900-
SOUTHEAST WISCONSIN

CITY           SKY/WX    TMP DP  RH WIND       PRES   REMARKS
MILWAUKEE      PTCLDY    66  62  87 NE5       29.94F
WAUKESHA       MOCLDY    63  61  94 E3        29.96F
MILWAUKEE/TIMM PTCLDY    66  61  82 CALM      29.96F
RACINE         PTCLDY    66  63  90 CALM      29.96F
BURLINGTON     PTCLDY    63  63  99 CALM      29.94F
KENOSHA        MOCLDY    65  64  97 SE5       29.95S
FOND DU LAC    MOCLDY    65  61  87 SE8       29.95F
SHEBOYGAN      MOCLDY    62  60  93 NE3       29.96F FOG
WEST BEND      MOCLDY    63  59  88 CALM      29.97S
JUNEAU         MOCLDY    65  39  38 E7        29.95F
$$

LSZ147-162-210900-
LAKE SUPERIOR

STATION/POSITION TIME  TEMP    WIND        PRES    WAVE
                       AIR SEA DIR/SP/G            HT/PER
                 (UTC) (F)     (DEG/KT/KT) (MB)    (FT/S)
W MID LAKE BUOY  0650   58 58  100/  4/  6 1014.5R   0
DEVILS ISLAND    0700   60     120/  6/  7 1014.4R
PORT WING        0740   59     100/  1/  4 1013.2F
SAXON HARBOR     0700   56        CALM     1013.9F
$$

LMZ867-665-643>646-210900-
LAKE MICHIGAN

STATION/POSITION TIME  TEMP    WIND        PRES    WAVE
                       AIR SEA DIR/SP/G            HT/PER
                 (UTC) (F)     (DEG/KT/KT) (MB)    (FT/S)
N MID LAKE BUOY  0650   63 62  220/  4/  6 1014.3R   0
NORTHPORT PIER   0700   64     190/  3/  5 1014.6S
SISTER BAY       0711   64     150/  1/  5   N/A
ALGOMA LAKESHORE 0723             CALM       N/A
KEWAUNEE LAKESHO 0700   61     250/  1/  2 1013.9S
SHEBOYGAN LAKESH 0700   66 67  150/  1/  1 1014.8F
ATWATER BUOY     0700   68     130/  4/  6 1015.6F
MILWAUKEE LAKESH 0700   68     110/  4/  4   N/A
S MID LAKE BUOY  0650   68 68   70/  6/  8 1014.1F   0
KENOSHA   LAKESH 0700   70      60/  5/  6 1013.9F
$$

TC  - TEMPERATURE IN CELSIUS
VSB - VISIBILITY IN STATUTE MILES
WCI - WIND CHILL INDEX
HX  - HEAT INDEX



USA.gov is the U.S. government's official web portal to all federal, state and local government web resources and services.